Flag for U.S.A. Weather past 2 weeks in Stamford, Connecticut, U.S.A.

Now
56 °F

Sunny.


Feels Like: 54 °F
Forecast: 35 / 56 °F
Wind: 9 mph from West

Location: Westchester County Airport

Current Time: Oct 20, 2014 at 2:32:06 PM

Latest Report: Oct 20, 2014 at 1:56 PM


Visibility: 10 mi

Pressure: 30.03 "Hg

Humidity: 42%

Dew point: 33 °F

Location of StamfordLocation

Historic Weather in Stamford — Graph

°F

Stamford temperature yesterday

Maximum temperature yesterday: 54 °F (at 12:56 AM)
Minimum temperature yesterday: 40 °F (at 10:56 PM)
Average temperature yesterday: 50 °F

Past Weeks' High & Low Weather Summary

 TemperatureHumidityPressure
High75 °F (Oct 15, 2:56 PM)100% (Oct 14, 6:56 AM)30.34 "Hg (Oct 14, 6:56 AM)
Low36 °F (Oct 20, 3:56 AM)34% (Oct 9, 1:56 PM)26.00 "Hg (Oct 17, 4:20 AM)
Average58 °F71%29.96 "Hg
* Reported Oct 5 12:56 PM — Oct 20 12:56 PM, Stamford, Weather by CustomWeather, © 2014

Note: Actual official high and low records may vary slightly from our data, if they occured in-between our weather recording intervals... More about our weather records

Advertising

Stamford weather history for previous 24 hours

 ConditionsComfort  
Time TempWeatherWind HumidityBarometerVisibility
12:56 PM
Oct 20
54 °FSunny.8 mph45%30.05 "Hg10 mi
11:56 AM50 °FPassing clouds.7 mph48%30.09 "Hg10 mi
10:56 AM47 °FScattered clouds.No wind56%30.11 "Hg10 mi
9:56 AM45 °FSunny.3 mph60%30.12 "Hg10 mi
8:56 AM42 °FSunny.No wind68%30.12 "Hg10 mi
7:56 AM37 °FClear.No wind82%30.10 "Hg10 mi
6:56 AM38 °FClear.3 mph73%30.09 "Hg10 mi
5:56 AM38 °FClear.5 mph73%30.08 "Hg10 mi
4:56 AM38 °FClear.3 mph73%30.08 "Hg10 mi
3:56 AM36 °FClear.No wind79%30.06 "Hg10 mi
2:56 AM37 °FClear.No wind76%30.06 "Hg10 mi
1:56 AM40 °FClear.7 mph60%30.05 "Hg10 mi
12:56 AM39 °FClear.3 mph62%30.05 "Hg10 mi
10:56 PM
Oct 19
40 °FClear.8 mph60%30.04 "Hg10 mi
9:56 PM42 °FClear.9 mph53%30.03 "Hg10 mi
8:56 PM43 °FClear.10 mph51%30.03 "Hg10 mi
7:56 PM45 °FClear.17 mph48%30.02 "Hg10 mi
6:56 PM46 °FPassing clouds.14 mph46%29.99 "Hg10 mi
5:56 PM47 °FPassing clouds.8 mph44%29.96 "Hg10 mi
4:56 PM49 °FPassing clouds.20 mph39%29.94 "Hg10 mi
3:56 PM50 °FPassing clouds.20 mph39%29.91 "Hg10 mi
2:56 PM51 °FPassing clouds.21 mph42%29.88 "Hg10 mi
Weather by CustomWeather, © 2014

See weather overviewHow to use our weather pages